{"data":{"norad_id":64380,"intl_designator":"2025-127L","name":"STARLINK-11744 [DTC]","alt_names":[],"object_type":"PAYLOAD","status":"ACTIVE","operator":null,"country":"US","launch_date":"2025-06-13","launch_site_code":"AFETR","launch_vehicle":null,"mission":null,"orbit_class":"UNKNOWN","rcs_meters":null,"size_class":null,"mass_kg":null,"dimensions":null,"purposes":["comms"],"wikipedia_slug":null,"has_3d_model":false,"image_url":null,"decayed_at":null,"tle_current":{"epoch":"2026-05-24T13:29:33.140832Z","epoch_age_seconds":106789,"freshness":"FRESH","line1":"1 64380U 25127L   26144.56218913  .00178488  00000+0  13601-2 0  9998","line2":"2 64380  43.0004 347.3352 0001873 265.7066  94.3587 15.70922186 55436","mean_motion":15.70922186,"eccentricity":0.0001873,"inclination_deg":43.0004,"raan_deg":347.3352,"arg_perigee_deg":265.7066,"mean_anomaly_deg":94.3587,"bstar":0.0013601,"rev_number":5543,"period_min":91.665902540127,"perigee_km":354.99881625072,"apogee_km":357.52152143017,"semimajor_km":6734.3971688404,"source":"CELESTRAK","updated_at":"2026-05-25T13:38:20.411929Z"}}}